This is the latest recevied weather packets stored in our database for station/object GUNLAK-WX. If no packets are shown the sender has not sent any weather packets the latest 10 day(s).
| Time | Temp. | Humidity | Pressure | Rain* | Wind** | Luminosity | Snow |
|---|---|---|---|---|---|---|---|
| 1777676496 | 6.11° C | 54% | 990.6 hPa | 0 mm | - | - | - |
| 1777675573 | 6.11° C | 57% | 989.4 hPa | 0 mm | - | - | - |
| 1777674692 | 6.67° C | 56% | 990.3 hPa | 0 mm | - | - | - |
| 1777673774 | 6.67° C | 56% | 990.3 hPa | 0 mm | - | - | - |
| 1777672903 | 6.67° C | 56% | 990.3 hPa | 0 mm | - | - | - |
| 1777671974 | 6.67° C | 60% | 989.8 hPa | 0 mm | - | - | - |
| 1777671088 | 6.67° C | 62% | 990.1 hPa | 0 mm | - | - | - |
| 1777670174 | 6.67° C | 62% | 990.1 hPa | 0 mm | - | - | - |
| 1777669302 | 6.67° C | 62% | 990.1 hPa | 0 mm | - | - | - |
| 1777668374 | 6.67° C | 61% | 989.4 hPa | 0 mm | - | - | - |
| 1777667491 | 6.11° C | 59% | 989.5 hPa | 0 mm | - | - | - |
| 1777666574 | 6.11° C | 59% | 989.5 hPa | 0 mm | - | - | - |
| 1777665701 | 6.67° C | 59% | 989.5 hPa | 0 mm | - | - | - |
| 1777664774 | 7.22° C | 54% | 989.2 hPa | 0 mm | - | - | - |
| 1777663890 | 7.78° C | 54% | 989.2 hPa | 0 mm | - | - | - |
| 1777662974 | 7.22° C | 54% | 989.2 hPa | 0 mm | - | - | - |
| 1777662097 | 7.78° C | 54% | 989.2 hPa | 0 mm | - | - | - |
| 1777661174 | 7.22° C | 57% | 988.8 hPa | 0 mm | - | - | - |
| 1777660289 | 7.22° C | 59% | 988.9 hPa | 0 mm | - | - | - |
| 1777659374 | 7.22° C | 59% | 988.9 hPa | 0 mm | - | - | - |
| 1777658507 | 6.67° C | 59% | 988.9 hPa | 0 mm | - | - | - |
| 1777657574 | 6.67° C | 57% | 989.9 hPa | 0 mm | - | - | - |
| 1777656689 | 6.11° C | 57% | 989.2 hPa | 0 mm | - | - | - |
| 1777655774 | 7.78° C | 57% | 989.2 hPa | 0 mm | - | - | - |
| 1777654901 | 7.78° C | 57% | 989.2 hPa | 0 mm | - | - | - |
* Rain latest hour (hover to see other rain measurements)
** Current wind speed in m/s (hover to see current wind gust speed)